Welcome to mirrors.dotsrc.org

All our mirrors of open source software are available via http, https and ftp. More information about our mirrors including statistics and contact information is available on our mirror info pages.

For information about dotsrc.org and our other services please go to our website.

Index of /mirrors/trisquel/pool/main/b/

File Name  ↓ File Size  ↓ Date  ↓ 
Parent directory/--
bootgen-xlnx/-2021-06-07 19:01:19
backport-iwlwifi-dkms/-2021-05-19 07:01:04
bluez/-2021-05-11 19:00:37
bind9/-2021-04-29 19:03:30
base-files/-2021-04-16 01:03:40
barbican/-2021-03-25 13:01:05
binutils/-2021-03-01 13:05:47
borgbackup/-2021-01-18 13:03:33
bash/-2020-12-19 19:32:39
blender/-2020-12-13 17:10:27
bleachbit/-2020-12-13 17:09:15
base-installer/-2020-12-13 17:06:54
brltty/-2020-12-11 20:18:02
browserpass/-2020-12-11 20:17:10
bulk-media-downloader/-2020-12-11 20:17:10
bgoffice/-2020-12-11 20:17:10
br.ispell/-2020-12-11 20:17:09
busybox/-2020-12-11 20:16:00
budgie-artwork/-2020-12-11 20:15:38
bundler/-2020-12-11 20:10:26
broccoli-ruby/-2020-12-11 20:10:26
boot/-2020-12-11 20:08:49
bluez-qt/-2020-12-11 20:08:11
basemap/-2020-12-11 20:05:56
btrfs-progs/-2020-12-11 20:05:40
beautifulsoup4/-2020-12-11 20:05:40
brotli/-2020-12-11 20:05:40
brial/-2020-12-11 20:05:40
blockdiag/-2020-12-11 20:05:40
breezy/-2020-12-11 20:05:40
bst-external/-2020-12-11 20:05:40
braceexpand/-2020-12-11 20:05:40
botan/-2020-12-11 20:05:40
branca/-2020-12-11 20:05:40
breathe/-2020-12-11 20:05:40
btchip-python/-2020-12-11 20:05:40
bpfcc/-2020-12-11 20:05:40
buildstream/-2020-12-11 20:05:40
buildbot/-2020-12-11 20:05:40
bottleneck/-2020-12-11 20:05:40
broccoli-python/-2020-12-11 20:05:40
blessings/-2020-12-11 20:05:39
blinker/-2020-12-11 20:05:39
blist/-2020-12-11 20:05:39
bladerf/-2020-12-11 20:05:38
bitstruct/-2020-12-11 20:05:38
blends/-2020-12-11 20:05:38
binaryornot/-2020-12-11 20:05:37
biomaj3-download/-2020-12-11 20:05:37
biomaj3/-2020-12-11 20:05:37
biomaj3-process/-2020-12-11 20:05:37
binoculars/-2020-12-11 20:05:37
biomaj3-user/-2020-12-11 20:05:37
binwalk/-2020-12-11 20:05:37
biomaj3-core/-2020-12-11 20:05:37
biomaj3-daemon/-2020-12-11 20:05:37
biomaj3-cli/-2020-12-11 20:05:37
betamax/-2020-12-11 20:05:36
billiard/-2020-12-11 20:05:36
bibtexparser/-2020-12-11 20:05:36
berrynet/-2020-12-11 20:05:36
bidict/-2020-12-11 20:05:36
bernhard/-2020-12-11 20:05:35
bcolz/-2020-12-11 20:05:35
beancount/-2020-12-11 20:05:35
beaker/-2020-12-11 20:05:35
behave/-2020-12-11 20:05:35
bdist-nsi/-2020-12-11 20:05:35
beanbag/-2020-12-11 20:05:35
barectf/-2020-12-11 20:05:34
bandit/-2020-12-11 20:05:34
barman/-2020-12-11 20:05:34
babelfish/-2020-12-11 20:05:34
backup2swift/-2020-12-11 20:05:34
babeltrace/-2020-12-11 20:05:34
black/-2020-12-11 20:04:28
backports.functools-lru-cache/-2020-12-11 20:04:27
ball/-2020-12-11 20:04:27
brlaser/-2020-12-11 20:04:05
bgw-replstatus/-2020-12-11 20:03:59
breeze-plymouth/-2020-12-11 20:03:53
bmake/-2020-12-11 20:03:53
bart/-2020-12-11 20:01:42
backbone/-2020-12-11 20:01:21
bignumber.js/-2020-12-11 20:01:21
brasero/-2020-12-11 20:00:41
brisk-menu/-2020-12-11 19:59:05
biosquid/-2020-12-11 19:56:34
brise/-2020-12-11 19:56:15
budgie-desktop/-2020-12-11 19:55:43
barada-pam/-2020-12-11 19:55:09
bind9-libs/-2020-12-11 19:53:59
baloo-kf5/-2020-12-11 19:52:46
baloo-widgets5/-2020-12-11 19:52:46
blockui/-2020-12-11 19:52:41
browser-request/-2020-12-11 19:52:40
bear/-2020-12-11 19:49:44
byte-buddy/-2020-12-11 19:48:46
bzrtp/-2020-12-11 19:48:46
bzip2/-2020-12-11 19:48:46
byteman/-2020-12-11 19:48:46
bwa/-2020-12-11 19:48:46
bullet/-2020-12-11 19:48:45
bulletml/-2020-12-11 19:48:45
bsh/-2020-12-11 19:48:41
blackbox/-2020-12-11 19:48:41
brailleutils/-2020-12-11 19:48:41
bridge-method-injector/-2020-12-11 19:48:41
boxfort/-2020-12-11 19:48:40
box2d/-2020-12-11 19:48:40
boost1.71/-2020-12-11 19:48:39
boost1.67/-2020-12-11 19:48:39
boost-defaults/-2020-12-11 19:48:38
boolstuff/-2020-12-11 19:48:37
bobcat/-2020-12-11 19:48:37
bmusb/-2020-12-11 19:48:37
bogl/-2020-12-11 19:48:37
boogie/-2020-12-11 19:48:37
blitz++/-2020-12-11 19:48:36
blis/-2020-12-11 19:48:36
bliss/-2020-12-11 19:48:36
biojava4-live/-2020-12-11 19:48:34
bitstream/-2020-12-11 19:48:34
biojava-live/-2020-12-11 19:48:34
bison/-2020-12-11 19:48:34
biniou/-2020-12-11 19:48:33
belle-sip/-2020-12-11 19:48:33
bin-prot/-2020-12-11 19:48:33
bigint/-2020-12-11 19:48:33
bindex/-2020-12-11 19:48:33
belr/-2020-12-11 19:48:33
benchmark/-2020-12-11 19:48:33
bglibs/-2020-12-11 19:48:33
bintray-client-java/-2020-12-11 19:48:33
biococoa/-2020-12-11 19:48:33
ben/-2020-12-11 19:48:33
bibutils/-2020-12-11 19:48:33
bioperl/-2020-12-11 19:48:33
bioperl-run/-2020-12-11 19:48:33
batik/-2020-12-11 19:48:32
bouncycastle/-2020-12-11 19:48:32
belcard/-2020-12-11 19:48:32
bcel/-2020-12-11 19:48:32
bctoolbox/-2020-12-11 19:48:32
buddy/-2020-12-11 19:48:32
bambamc/-2020-12-11 19:48:31
bamtools/-2020-12-11 19:48:31
bamf/-2020-12-11 19:48:31
barclay/-2020-12-11 19:48:31
backward-cpp/-2020-12-11 19:48:30
babl/-2020-12-11 19:48:30
breeze/-2020-12-11 19:47:00
breeze-gtk/-2020-12-11 19:44:42
breeze-grub/-2020-12-11 19:44:38
badger/-2020-12-11 19:44:19
bsd-finger/-2020-12-11 19:36:30
bar-cursor-el/-2020-12-11 19:35:34
browse-kill-ring-el/-2020-12-11 19:35:34
boxquote-el/-2020-12-11 19:35:34
bm-el/-2020-12-11 19:35:34
beacon/-2020-12-11 19:35:34
beginend-el/-2020-12-11 19:35:34
bc/-2020-12-11 19:34:53
build-essential/-2020-12-11 19:34:40
bordeaux-threads/-2020-12-11 19:33:26
bzr-git/-2020-12-11 19:33:02
bzr-stats/-2020-12-11 19:33:02
butt/-2020-12-11 19:33:02
bumpversion/-2020-12-11 19:33:02
butteraugli/-2020-12-11 19:33:02
bundlewrap/-2020-12-11 19:33:02
burp/-2020-12-11 19:33:02
buthead/-2020-12-11 19:33:02
bochs/-2020-12-11 19:33:02
byzanz/-2020-12-11 19:33:02
bytes-circle/-2020-12-11 19:33:02
bzrtools/-2020-12-11 19:33:02
bzr-upload/-2020-12-11 19:33:02
bzr-builddeb/-2020-12-11 19:33:02
bzr-email/-2020-12-11 19:33:02
bzr/-2020-12-11 19:33:02
bwbar/-2020-12-11 19:33:02
bvi/-2020-12-11 19:33:02
bzr-fastimport/-2020-12-11 19:33:02
burrow/-2020-12-11 19:33:02
bumprace/-2020-12-11 19:33:02
bwm-ng/-2020-12-11 19:33:02
byobu/-2020-12-11 19:33:02
bwidget/-2020-12-11 19:33:02
burgerspace/-2020-12-11 19:33:02
bzflag/-2020-12-11 19:33:02
bugwarrior/-2020-12-11 19:33:01
bugsquish/-2020-12-11 19:33:01
budgie-wallpapers/-2020-12-11 19:33:01
bugz/-2020-12-11 19:33:01
buku/-2020-12-11 19:33:01
buici-clock/-2020-12-11 19:33:01
budgie-extras/-2020-12-11 19:33:01
buildapp/-2020-12-11 19:33:01
budgie-desktop-environment/-2020-12-11 19:32:56
btrfs-heatmap/-2020-12-11 19:32:56
bubblewrap/-2020-12-11 19:32:56
bucardo/-2020-12-11 19:32:56
btrfs-compsize/-2020-12-11 19:32:56
btrbk/-2020-12-11 19:32:56
btanks/-2020-12-11 19:32:56
btrfsmaintenance/-2020-12-11 19:32:56
budgie-indicator-applet/-2020-12-11 19:32:56
btscanner/-2020-12-11 19:32:56
btfs/-2020-12-11 19:32:56
btcheck/-2020-12-11 19:32:56
bti/-2020-12-11 19:32:56
btest/-2020-12-11 19:32:56
breezy-debian/-2020-12-11 19:32:55
brutalchess/-2020-12-11 19:32:55
bsdmainutils/-2020-12-11 19:32:55
brightnessctl/-2020-12-11 19:32:55
brig/-2020-12-11 19:32:55
brutespray/-2020-12-11 19:32:55
brightd/-2020-12-11 19:32:55
bspwm/-2020-12-11 19:32:55
brp-pacu/-2020-12-11 19:32:55
bsd-mailx/-2020-12-11 19:32:55
brewtarget/-2020-12-11 19:32:55
bro-aux/-2020-12-11 19:32:55
brutefir/-2020-12-11 19:32:55
bs1770gain/-2020-12-11 19:32:55
bsdiff/-2020-12-11 19:32:55
btag/-2020-12-11 19:32:55
breezy-loom/-2020-12-11 19:32:55
briquolo/-2020-12-11 19:32:55
bsdgames/-2020-12-11 19:32:55
bridge-utils/-2020-12-11 19:32:55
brickos/-2020-12-11 19:32:55
bruteforce-salted-openssl/-2020-12-11 19:32:55
breeze-icons/-2020-12-11 19:32:54
brebis/-2020-12-11 19:32:53
bpython/-2020-12-11 19:32:53
brainparty/-2020-12-11 19:32:53
braa/-2020-12-11 19:32:53
bppsuite/-2020-12-11 19:32:53
bpm-tools/-2020-12-11 19:32:52
bppphyview/-2020-12-11 19:32:52
bpftrace/-2020-12-11 19:32:52
boxes/-2020-12-11 19:32:52
boxshade/-2020-12-11 19:32:52
boxer/-2020-12-11 19:32:52
boswars/-2020-12-11 19:32:51
bowtie2/-2020-12-11 19:32:51
botch/-2020-12-11 19:32:51
bouncy/-2020-12-11 19:32:51
bovo/-2020-12-11 19:32:51
boxbackup/-2020-12-11 19:32:51
bowtie/-2020-12-11 19:32:51
bottlerocket/-2020-12-11 19:32:51
boohu/-2020-12-11 19:32:48
bosh/-2020-12-11 19:32:48
bmon/-2020-12-11 19:32:48
bookletimposer/-2020-12-11 19:32:48
bogofilter/-2020-12-11 19:32:48
bonnie++/-2020-12-11 19:32:48
bolt-lmm/-2020-12-11 19:32:48
bomberclone/-2020-12-11 19:32:48
bnfc/-2020-12-11 19:32:48
bootp/-2020-12-11 19:32:48
borgmatic/-2020-12-11 19:32:48
boot-info-script/-2020-12-11 19:32:48
bootcd/-2020-12-11 19:32:48
bodr/-2020-12-11 19:32:48
bmagic/-2020-12-11 19:32:48
bmap-tools/-2020-12-11 19:32:48
bnd/-2020-12-11 19:32:48
bosixnet/-2020-12-11 19:32:48
boomaga/-2020-12-11 19:32:48
bossa/-2020-12-11 19:32:48
bomber/-2020-12-11 19:32:48
boats/-2020-12-11 19:32:48
boinc-app-seti/-2020-12-11 19:32:48
bombardier/-2020-12-11 19:32:48
booth/-2020-12-11 19:32:48
boinctui/-2020-12-11 19:32:48
bomstrip/-2020-12-11 19:32:48
bolt/-2020-12-11 19:32:48
blop/-2020-12-11 19:32:47
bluez-tools/-2020-12-11 19:32:47
bluedevil/-2020-12-11 19:32:47
bluefish/-2020-12-11 19:32:47
blueman/-2020-12-11 19:32:47
bluez-btsco/-2020-12-11 19:32:47
bluebird-gtk-theme/-2020-12-11 19:32:47
blocks-of-the-undead/-2020-12-11 19:32:46
blockattack/-2020-12-11 19:32:46
blobwars/-2020-12-11 19:32:46
blockout2/-2020-12-11 19:32:46
blinken/-2020-12-11 19:32:44
blhc/-2020-12-11 19:32:44
bloboats/-2020-12-11 19:32:44
bless/-2020-12-11 19:32:44
blktrace/-2020-12-11 19:32:44
blktool/-2020-12-11 19:32:44
blobby/-2020-12-11 19:32:44
blepvco/-2020-12-11 19:32:44
blasr/-2020-12-11 19:32:43
blazeblogger/-2020-12-11 19:32:43
blahtexml/-2020-12-11 19:32:43
blastem/-2020-12-11 19:32:43
birdfont/-2020-12-11 19:32:42
bittwist/-2020-12-11 19:32:42
bit-babbler/-2020-12-11 19:32:42
blackbox-themes/-2020-12-11 19:32:42
birdtray/-2020-12-11 19:32:42
bitwise/-2020-12-11 19:32:42
bison-doc/-2020-12-11 19:32:42
biogenesis/-2020-12-11 19:32:42
bip/-2020-12-11 19:32:42
bitlbee-mastodon/-2020-12-11 19:32:42
bitstormlite/-2020-12-11 19:32:42
binutils-xtensa-lx106/-2020-12-11 19:32:42
bird/-2020-12-11 19:32:42
bio-tradis/-2020-12-11 19:32:42
blackbird-gtk-theme/-2020-12-11 19:32:42
bisonc++/-2020-12-11 19:32:42
bio-eagle/-2020-12-11 19:32:42
bitshuffle/-2020-12-11 19:32:42
bio-rainbow/-2020-12-11 19:32:42
bison++/-2020-12-11 19:32:42
bird2/-2020-12-11 19:32:42
bitlbee/-2020-12-11 19:32:42
bitseq/-2020-12-11 19:32:42
bitlbee-facebook/-2020-12-11 19:32:42
biobambam2/-2020-12-11 19:32:42
biosyntax/-2020-12-11 19:32:42
binutils-riscv64-unknown-elf/-2020-12-11 19:32:36
binutils-mipsen/-2020-12-11 19:32:33
binutils-mingw-w64/-2020-12-11 19:32:21
binutils-avr/-2020-12-11 19:32:18
binutils-arm-none-eabi/-2020-12-11 19:32:18
binutils-djgpp/-2020-12-11 19:32:18
bino/-2020-12-11 19:32:13
bindfs/-2020-12-11 19:32:13
binaryen/-2020-12-11 19:32:13
binfmt-support/-2020-12-11 19:32:13
binkd/-2020-12-11 19:32:13
binpac/-2020-12-11 19:32:13
bikeshed/-2020-12-11 19:32:13
bilibop/-2020-12-11 19:32:13
bindgraph/-2020-12-11 19:32:13
biloba/-2020-12-11 19:32:13
biglybt/-2020-12-11 19:32:13
bijiben/-2020-12-11 19:32:13
billard-gl/-2020-12-11 19:32:13
bing/-2020-12-11 19:32:13
bind-dyndb-ldap/-2020-12-11 19:32:13
bibtex2html/-2020-12-11 19:32:12
bf-utf/-2020-12-11 19:32:12
bfs/-2020-12-11 19:32:12
biabam/-2020-12-11 19:32:12
biff/-2020-12-11 19:32:12
biber/-2020-12-11 19:32:12
berusky2-data/-2020-12-11 19:32:12
bibcursed/-2020-12-11 19:32:12
bgpq3/-2020-12-11 19:32:12
bibshelf/-2020-12-11 19:32:12
bidiv/-2020-12-11 19:32:12
between/-2020-12-11 19:32:12
bgoffice-computer-terms/-2020-12-11 19:32:12
bibtexconv/-2020-12-11 19:32:12
bidentd/-2020-12-11 19:32:12
big-cursor/-2020-12-11 19:32:12
bifcl/-2020-12-11 19:32:12
bibtool/-2020-12-11 19:32:12
biboumi/-2020-12-11 19:32:12
bgpdump/-2020-12-11 19:32:12
beignet/-2020-12-11 19:32:01
beef/-2020-12-11 19:32:01
bedtools/-2020-12-11 19:32:01
berusky/-2020-12-11 19:32:01
berkeley-express/-2020-12-11 19:32:01
beets/-2020-12-11 19:32:01
berusky2/-2020-12-11 19:32:01
berusky-data/-2020-12-11 19:32:01
beep/-2020-12-11 19:32:01
belenios/-2020-12-11 19:32:01
berkeley-abc/-2020-12-11 19:32:01
bedops/-2020-12-11 19:32:00
beast2-mcmc/-2020-12-11 19:32:00
beav/-2020-12-11 19:32:00
bdii/-2020-12-11 19:31:59
bats/-2020-12-11 19:31:59
bcron/-2020-12-11 19:31:59
bdfresize/-2020-12-11 19:31:59
beagle/-2020-12-11 19:31:59
barrier/-2020-12-11 19:31:59
bdbvu/-2020-12-11 19:31:59
bcalm/-2020-12-11 19:31:59
base-passwd/-2020-12-11 19:31:59
batmon.app/-2020-12-11 19:31:59
beanstalkd/-2020-12-11 19:31:59
bcftools/-2020-12-11 19:31:59
basex/-2020-12-11 19:31:59
beads/-2020-12-11 19:31:59
bdfproxy/-2020-12-11 19:31:59
batctl/-2020-12-11 19:31:59
bcal/-2020-12-11 19:31:59
bbmap/-2020-12-11 19:31:59
bash-completion/-2020-12-11 19:31:59
bbrun/-2020-12-11 19:31:59
bbpager/-2020-12-11 19:31:59
basket/-2020-12-11 19:31:59
basez/-2020-12-11 19:31:59
bastet/-2020-12-11 19:31:59
bcache-tools/-2020-12-11 19:31:59
barrnap/-2020-12-11 19:31:59
basic256/-2020-12-11 19:31:59
barrage/-2020-12-11 19:31:59
bbtime/-2020-12-11 19:31:59
bbdb/-2020-12-11 19:31:59
bd/-2020-12-11 19:31:59
batmand/-2020-12-11 19:31:59
bcpp/-2020-12-11 19:31:59
bbmail/-2020-12-11 19:31:59
bchunk/-2020-12-11 19:31:59
bart-view/-2020-12-11 19:31:59
bbdb3/-2020-12-11 19:31:59
bbswitch/-2020-12-11 19:31:59
balboa/-2020-12-11 19:31:58
bam/-2020-12-11 19:31:58
baobab/-2020-12-11 19:31:58
balsa/-2020-12-11 19:31:58
bambootracker/-2020-12-11 19:31:58
ballerburg/-2020-12-11 19:31:58
bagel/-2020-12-11 19:31:58
bandage/-2020-12-11 19:31:58
baresip/-2020-12-11 19:31:58
barnowl/-2020-12-11 19:31:58
bambam/-2020-12-11 19:31:58
ballz/-2020-12-11 19:31:58
baitfisher/-2020-12-11 19:31:58
barcode/-2020-12-11 19:31:58
bali-phy/-2020-12-11 19:31:58
bacula/-2020-12-11 19:31:57
bacula-doc/-2020-12-11 19:31:57
backintime/-2020-12-11 19:31:56
babel-minify/-2020-12-11 19:31:56
babeld/-2020-12-11 19:31:56
backupchecker/-2020-12-11 19:31:56
backdoor-factory/-2020-12-11 19:31:56
backup2l/-2020-12-11 19:31:56
backuppc/-2020-12-11 19:31:56
backblaze-b2/-2020-12-11 19:31:56
backuppc-rsync/-2020-12-11 19:31:56
backstep/-2020-12-11 19:31:56
backupninja/-2020-12-11 19:31:56
backup-manager/-2020-12-11 19:31:56
bterm-unifont/-2020-12-11 19:29:37
bzr-xmloutput/-2020-12-11 00:05:02
bzr-search/-2020-12-11 00:05:02
buxon/-2020-12-11 00:05:01
bristol/-2020-12-11 00:05:01
blam/-2020-12-11 00:05:01
botan1.10/-2020-12-11 00:05:01
biosdevname/-2020-12-11 00:05:01
bcrypt/-2020-12-11 00:05:01
b5i2iso/-2020-12-11 00:05:01
blcr/-2020-12-11 00:05:01
bombono-dvd/-2020-12-11 00:05:01
bitmap-mule/-2020-12-11 00:05:01
bfm/-2020-12-11 00:05:01
blacs-mpi/-2020-12-11 00:05:01
babiloo/-2020-12-11 00:05:01
binutils-z80/-2020-12-11 00:05:01
bauble/-2020-12-11 00:05:01
bjsonrpc/-2020-12-11 00:05:01
buffy/-2020-12-11 00:05:01
brandy/-2020-12-11 00:05:01
banshee/-2020-12-11 00:05:01
binutils-m68hc1x/-2020-12-11 00:05:01
betaradio/-2020-12-11 00:05:01
bashdb/-2020-12-11 00:05:01
blktap/-2020-12-11 00:05:01
balance/-2020-12-11 00:05:01
bitmeter/-2020-12-11 00:05:01
bubbros/-2020-12-11 00:05:01
bashburn/-2020-12-11 00:05:01
biomaj/-2020-12-11 00:05:01
bb/-2020-12-11 00:05:01
bustle/-2020-12-11 00:05:01
bareftp/-2020-12-11 00:05:01
bkchem/-2020-12-11 00:05:01
beanstalkc/-2020-12-11 00:05:01
baycomusb/-2020-12-11 00:05:01
bist/-2020-12-11 00:05:01
buildbot-slave/-2020-12-11 00:05:01
balder2d/-2020-12-11 00:05:01
biosig4c++/-2020-12-11 00:05:01
binutils-h8300-hms/-2020-12-11 00:05:01
bluewho/-2020-12-11 00:05:01
blktap-dkms/-2020-12-11 00:05:01
baloo-widgets/-2020-12-11 00:05:01
bittornado/-2020-12-11 00:05:01
biojava3-live/-2020-12-11 00:05:01
boa-constructor/-2020-12-11 00:05:01
baloo/-2020-12-11 00:05:01
bfgminer/-2020-12-11 00:05:01
blt/-2020-12-11 00:05:01
bluetooth-touch/-2020-12-11 00:05:01
beneath-a-steel-sky/-2020-12-11 00:05:01
bup/-2020-12-11 00:05:01
bugs-everywhere/-2020-12-11 00:05:01
bsaf/-2020-12-11 00:05:01
bcfg2/-2020-12-11 00:05:01
bio2jack/-2020-12-11 00:05:01
bodega-client/-2020-12-11 00:05:01
black-box/-2020-12-11 00:05:01
brian/-2020-12-11 00:05:01
bibus/-2020-12-11 00:05:01
bittorrent/-2020-12-11 00:05:01
bzr-pipeline/-2020-12-11 00:05:01
bley/-2020-12-11 00:05:01
binutils-msp430/-2020-12-11 00:05:01
baycomepp/-2020-12-11 00:05:01
btrfs-tools/-2020-12-11 00:05:01
blosxom/-2020-12-11 00:05:01
browser-history/-2020-12-11 00:05:01
bygfoot/-2020-12-11 00:05:01
bandwidthd/-2020-12-11 00:05:01
buffer/-2020-12-11 00:05:01
bhl/-2020-12-11 00:05:01
byacc/-2020-12-11 00:05:01
bootmail/-2020-12-11 00:05:01
bwctl/-2020-12-11 00:05:01
binstats/-2020-12-11 00:05:01
bzr-explorer/-2020-05-30 22:37:43
bzr-builder/-2020-05-30 22:37:43
bzr-loom/-2020-05-30 22:37:43
bzr-dbus/-2020-05-30 22:37:43
bytecode/-2020-05-30 22:37:42
bve-train-br-class-323/-2020-05-30 22:37:42
byacc-j/-2020-05-30 22:37:42
build-helper-maven-plugin/-2020-05-30 22:37:42
bsfilter/-2020-05-30 22:37:42
bs2b-ladspa/-2020-05-30 22:37:42
bve-train-br-class-323-3dcab/-2020-05-30 22:37:42
buffycli/-2020-05-30 22:37:42
buildtorrent/-2020-05-30 22:37:42
bve-route-cross-city-south/-2020-05-30 22:37:42
brightside/-2020-05-30 22:37:41
bootchart/-2020-05-30 22:37:41
branding-ubuntu/-2020-05-30 22:37:41
bmf/-2020-05-30 22:37:39
boolector/-2020-05-30 22:37:39
bookview/-2020-05-30 22:37:39
bitops/-2020-05-30 22:37:13
birthday/-2020-05-30 22:37:12
bisho/-2020-05-30 22:37:12
biniax2/-2020-05-30 22:37:10
bf/-2020-05-30 22:37:09
bicyclerepair/-2020-05-30 22:37:09
belier/-2020-05-30 22:37:09
binclock/-2020-05-30 22:37:09
beautifulsoup/-2020-05-30 22:37:09
bbe/-2020-05-30 22:37:08
banshee-community-extensions/-2020-05-30 22:37:07
bar/-2020-05-30 22:37:07
balloontip/-2020-05-30 22:37:07
babel/-2020-05-30 22:37:06
bacon2d/-2019-04-15 04:55:43
bitz-server/-2019-04-15 04:15:58
broccoli/-2019-04-15 04:02:31
boost1.65.1/-2019-04-15 04:02:22
boost1.62/-2019-04-15 04:02:20
bwbasic/-2019-04-15 02:41:55
buzztrax/-2019-04-15 02:41:55
bucklespring/-2019-04-15 02:41:43
btyacc/-2019-04-15 02:41:42
btpd/-2019-04-15 02:41:41
bruteforce-luks/-2019-04-15 02:41:38
bro/-2019-04-15 02:41:35
bplay/-2019-04-15 02:41:21
bopm/-2019-04-15 02:41:11
bootpc/-2019-04-15 02:41:11
boinc-app-eah-brp/-2019-04-15 02:41:06
bluemon/-2019-04-15 02:40:59
blobandconquer/-2019-04-15 02:40:47
blkreplay/-2019-04-15 02:40:46
bld/-2019-04-15 02:40:35
blacs-pvm/-2019-04-15 02:40:34
binfmtc/-2019-04-15 02:33:50
bindechexascii/-2019-04-15 02:33:48
bfbtester/-2019-04-15 02:33:44
bibclean/-2019-04-15 02:33:44
battery-stats/-2019-04-15 02:33:27
biomaj3-zipkin/-2019-04-15 01:21:26
backports.ssl-match-hostname/-2019-04-15 01:10:39
bookkeeper/-2019-04-14 23:43:52
bidi-clojure/-2019-04-14 23:43:41
beansbinding/-2019-04-14 23:43:40
beckon-clojure/-2019-04-14 23:43:40
blag-fortune/-2019-04-14 22:39:25
bind-key/-2019-04-14 22:23:00
budgie-welcome/-2019-04-14 21:59:58
bro-pkg/-2019-04-14 21:59:21
brag/-2019-04-14 21:59:03
braillegraph/-2019-04-14 21:59:03
boxer-data/-2019-04-14 21:58:56
bootstrap-vz/-2019-04-14 21:58:30
blogofile/-2019-04-14 21:58:13
blockfinder/-2019-04-14 21:58:08
bbqsql/-2019-04-14 21:53:54
barman-cli/-2019-04-14 21:53:51
bzr-webdav/-2018-04-30 14:44:26
burn/-2018-04-30 14:44:25
brother-lpr-drivers-mfc9420cn/-2018-04-30 14:44:25
bobo/-2018-04-30 14:44:23
blueproximity/-2018-04-30 14:44:23
beancounter/-2018-04-30 14:44:19
boost1.58/-2016-07-15 14:57:35
buteo-syncfw-qml/-2016-06-24 21:58:23
buteo-syncfw/-2016-06-24 21:26:12
baloo-kcmadv/-2016-06-24 21:23:07
buteo-sync-plugins-contacts/-2016-06-24 21:06:43
bls-standalone/-2016-06-24 21:06:29
bareos/-2016-06-24 21:05:53
breadability/-2016-06-24 20:32:46
binplist/-2016-06-24 20:32:43
buildnotify/-2016-06-24 19:13:14
bsdowl/-2016-06-24 19:13:11
broctl/-2016-06-24 19:13:09
bmt/-2016-06-24 19:12:48
bigdata/-2016-06-24 19:11:57
bunch/-2014-02-06 19:55:08
backbone-dirty.js/-2014-02-06 19:52:31
boilerpipe/-2014-02-06 19:42:57
bzr-tweet/-2014-02-06 19:34:30
blubuntu-look/-2011-07-14 15:53:03
bum/-2010-03-10 22:02:12
breathe-icon-theme/-2010-03-10 22:02:11
bsign/-2010-03-10 22:02:11
bot-sentry/-2010-03-10 22:02:10
bandwidthcalc/-2010-03-10 22:02:03